| time (UTC) | temp C | wind direction | speed KPH | gust KPH | rain 1hr cm | rain 24hr cm | rain mn cm | humidity % | barometer mb |
| 20260503033448 | 13 | 146 | 12.9 | 20.9 | 13.11 | 0.00 | 0.00 | ||
| 20260503032148 | 13 | 141 | 11.3 | 16.1 | 13.11 | 0.00 | 0.00 | ||
| 20260503030848 | 13 | 148 | 11.3 | 14.5 | 13.11 | 0.00 | 0.00 | ||
| 20260503025548 | 13 | 131 | 12.9 | 17.7 | 13.11 | 0.00 | 0.00 | ||
| 20260503024248 | 14 | 115 | 14.5 | 20.9 | 13.11 | 0.00 | 0.00 | ||
| 20260503022948 | 15 | 108 | 14.5 | 17.7 | 13.11 | 0.00 | 0.00 | ||
| 20260503021648 | 16 | 124 | 12.9 | 17.7 | 13.11 | 0.00 | 0.00 | ||
| 20260503020348 | 16 | 124 | 12.9 | 16.1 | 13.11 | 0.00 | 0.00 | ||
| 20260503015048 | 18 | 142 | 8.0 | 9.7 | 13.11 | 0.00 | 0.00 | ||
| 20260503013748 | 18 | 149 | 11.3 | 14.5 | 13.11 | 0.00 | 0.00 | ||
| 20260503012448 | 18 | 113 | 14.5 | 20.9 | 13.11 | 0.00 | 0.00 | ||
| 20260503011148 | 19 | 160 | 9.7 | 16.1 | 13.11 | 0.00 | 0.00 | ||
| 20260503005848 | 18 | 118 | 11.3 | 17.7 | 13.11 | 0.00 | 0.00 | ||
| 20260503004548 | 19 | 162 | 8.0 | 17.7 | 13.11 | 0.00 | 0.00 | ||
| 20260503003247 | 18 | 108 | 9.7 | 16.1 | 13.11 | 0.00 | 0.00 | ||
| 20260503001947 | 18 | 122 | 12.9 | 19.3 | 13.11 | 0.00 | 0.00 | ||
| 20260503000648 | 19 | 153 | 8.0 | 16.1 | 13.11 | 0.00 | 0.00 | ||
| 20260502235347 | 18 | 115 | 12.9 | 22.5 | 13.11 | 0.00 | 0.00 | ||
| 20260502234047 | 19 | 180 | 9.7 | 16.1 | 13.11 | 0.00 | 0.00 | ||
| 20260502232747 | 18 | 153 | 11.3 | 22.5 | 13.11 | 0.00 | 0.00 | ||
| 20260502231447 | 19 | 150 | 11.3 | 20.9 | 13.11 | 0.00 | 0.00 | ||
| 20260502230148 | 18 | 128 | 16.1 | 29.0 | 13.11 | 0.00 | 0.00 | ||
| 20260502224847 | 18 | 93 | 8.0 | 19.3 | 13.11 | 0.00 | 0.00 | ||
| 20260502223547 | 17 | 121 | 8.0 | 16.1 | 13.11 | 0.00 | 0.00 | ||
| 20260502222247 | 17 | 217 | 11.3 | 19.3 | 13.11 | 0.00 | 0.00 | ||
| 20260502220947 | 18 | 153 | 11.3 | 19.3 | 13.11 | 0.00 | 0.00 | ||
| 20260502215647 | 17 | 117 | 11.3 | 20.9 | 13.11 | 0.00 | 0.00 | ||
| 20260502213047 | 17 | 89 | 9.7 | 22.5 | 13.11 | 0.00 | 0.00 | ||
| 20260502211748 | 17 | 163 | 9.7 | 17.7 | 13.11 | 0.00 | 0.00 | ||
| 20260502210447 | 17 | 113 | 9.7 | 16.1 | 13.11 | 0.00 | 0.00 | ||
| 20260502205147 | 17 | 155 | 8.0 | 14.5 | 13.11 | 0.00 | 0.00 | ||
| 20260502202547 | 16 | 203 | 8.0 | 27.4 | 13.11 | 0.00 | 0.00 | ||
| 20260502201247 | 16 | 91 | 9.7 | 17.7 | 13.11 | 0.00 | 0.00 | ||
| 20260502195947 | 16 | 158 | 12.9 | 27.4 | 13.11 | 0.00 | 0.00 | ||
| 20260502194647 | 16 | 83 | 4.8 | 14.5 | 13.11 | 0.00 | 0.00 | ||
| 20260502193347 | 15 | 156 | 8.0 | 19.3 | 13.11 | 0.00 | 0.00 | ||
| 20260502192047 | 15 | 155 | 11.3 | 20.9 | 13.11 | 0.00 | 0.00 | ||
| 20260502190747 | 15 | 107 | 9.7 | 19.3 | 13.11 | 0.00 | 0.00 | ||
| 20260502185447 | 15 | 183 | 3.2 | 14.5 | 13.11 | 0.00 | 0.00 | ||
| 20260502184147 | 15 | 94 | 9.7 | 19.3 | 13.11 | 0.00 | 0.00 | ||
| 20260502182847 | 14 | 117 | 9.7 | 22.5 | 13.11 | 0.00 | 0.00 | ||
| 20260502181547 | 15 | 158 | 12.9 | 20.9 | 13.11 | 0.00 | 0.00 | ||
| 20260502180247 | 15 | 128 | 11.3 | 19.3 | 13.11 | 0.00 | 0.00 | ||
| 20260502163147 | 12 | 58 | 8.0 | 12.9 | 13.11 | 0.00 | 0.00 | ||
| 20260502161847 | 12 | 53 | 6.4 | 9.7 | 13.11 | 0.00 | 0.00 | ||
| 20260502160547 | 11 | 68 | 8.0 | 11.3 | 13.11 | 0.00 | 0.00 | ||
| 20260502151347 | 10 | 0 | 0.0 | 0.0 | 13.11 | 0.00 | 0.00 | ||
| 20260502130347 | 7 | 307 | 3.2 | 6.4 | 13.11 | 0.00 | 0.00 | ||
| 20260502123747 | 7 | 281 | 6.4 | 8.0 | 13.11 | 0.00 | 0.00 | ||
| 20260502122447 | 7 | 276 | 6.4 | 9.7 | 13.11 | 0.00 | 0.00 | ||
| 20260502121147 | 7 | 291 | 4.8 | 8.0 | 13.11 | 0.00 | 0.00 | ||
| 20260502115847 | 7 | 305 | 8.0 | 11.3 | 13.11 | 0.00 | 0.00 | ||
| 20260502114547 | 7 | 295 | 6.4 | 9.7 | 13.11 | 0.00 | 0.00 | ||
| 20260502113247 | 7 | 295 | 4.8 | 11.3 | 13.11 | 0.00 | 0.00 | ||
| 20260502111947 | 7 | 316 | 9.7 | 12.9 | 13.11 | 0.00 | 0.00 | ||
| 20260502110647 | 7 | 291 | 9.7 | 12.9 | 13.11 | 0.00 | 0.00 | ||
| 20260502105347 | 7 | 273 | 4.8 | 6.4 | 13.11 | 0.00 | 0.00 | ||
| 20260502104047 | 7 | 288 | 6.4 | 9.7 | 13.11 | 0.00 | 0.00 | ||
| 20260502102747 | 7 | 260 | 6.4 | 11.3 | 13.11 | 0.00 | 0.00 | ||
| 20260502101447 | 8 | 295 | 9.7 | 14.5 | 13.11 | 0.00 | 0.00 | ||
| 20260502100147 | 8 | 274 | 6.4 | 9.7 | 13.11 | 0.00 | 0.00 | ||
| 20260502090946 | 9 | 280 | 9.7 | 14.5 | 13.11 | 0.00 | 0.00 | ||
| 20260502071246 | 8 | 257 | 9.7 | 9.7 | 13.11 | 0.00 | 0.00 | ||
| 20260502065946 | 8 | 252 | 9.7 | 9.7 | 13.11 | 0.00 | 0.00 | ||
| 20260502064646 | 8 | 253 | 9.7 | 11.3 | 13.11 | 0.00 | 0.00 | ||
| 20260502063346 | 8 | 249 | 11.3 | 14.5 | 13.11 | 0.00 | 0.00 | ||
| 20260502062046 | 8 | 260 | 9.7 | 11.3 | 13.11 | 0.00 | 0.00 | ||
| 20260502060746 | 8 | 240 | 12.9 | 14.5 | 13.11 | 0.00 | 0.00 | ||
| 20260502055446 | 8 | 249 | 8.0 | 11.3 | 13.11 | 0.00 | 0.00 | ||
| 20260502054146 | 9 | 278 | 6.4 | 11.3 | 13.11 | 0.00 | 0.00 | ||
| 20260502052847 | 9 | 283 | 6.4 | 11.3 | 13.11 | 0.00 | 0.00 | ||
| 20260502051546 | 9 | 314 | 0.0 | 6.4 | 13.11 | 0.00 | 0.00 | ||
| 20260502050246 | 9 | 321 | 1.6 | 6.4 | 13.11 | 0.00 | 0.00 | ||
| 20260502044946 | 10 | 285 | 6.4 | 14.5 | 13.11 | 0.00 | 0.00 | ||
| 20260502043647 | 10 | 309 | 3.2 | 11.3 | 13.11 | 0.00 | 0.00 | ||
| 20260502042346 | 10 | 14 | 4.8 | 9.7 | 13.11 | 0.00 | 0.00 | ||
| 20260502041047 | 11 | 342 | 4.8 | 11.3 | 13.11 | 0.00 | 0.00 | ||
| 20260502035746 | 11 | 352 | 6.4 | 14.5 | 13.11 | 0.00 | 0.00 | ||
| 20260502034446 | 11 | 356 | 11.3 | 25.7 | 13.11 | 0.00 | 0.00 |